map of ABV home
Great Circle Mapper logo
ABV - Airport
Location
City:  Abuja, Nigeria
Name:Nnamdi Azikiwe International Airport
ICAO / IATA:DNAA / ABV

Details
Type:Airport (Aerodrome, Airfield)
Use:Public/Civil, International (customs port of entry)
Latitude:900'24"N (9.006792)
Longitude:715'47"E (7.263172)
Datum:WGS 1984
Elevation:1123 ft (342 m)
Runways:1
Longest:11842 × 197 ft (3609 × 60 m), paved

Time
Time Zone:UTC+1
Local Time:

Weather
METAR:DNAA 292100Z 14003KT 9999 FEW009 25/20 Q1014 NOSIG
TAF:DNAA 300350Z 3006/3112 02004KT 8000 FEW007
TEMPO 3006/3008 5000 DZBR SCT006
BECMG 3008/3010 22007KT 9999 NSW BKN009 PROB30
TEMPO 3014/3020 07013KT 5000 TSRA BKN007 FEW018CB
BECMG 3020/3022 19002KT 9999 NSW FEW007

Related Locations
Nearby:
Farthest:AAU: 12121 mi / 19506 km
Asau, WS

Find:

   beyond  
but within

Other Information
Maps:
NOTAMs:
Links:
Sources:

  
flag of Nigeria   

Sectional Chart

Flight Planning
at skyvector.com

Satellite Image

Google Maps Satellite View

 

Copyright © 2004-2014 Karl L. Swartz. All rights reserved.
The Great Circle Mapper name and logo are trademarks of the Great Circle Mapper.
All other trademarks mentioned herein belong to their respective owners.
Please see credits for attibutions and further copyright information.

  Follow gcmap on Facebook Follow gcmap on Twitter

hCard Microformat

Geo Microformat